Time,TemperatureF,DewpointF,PressureIn,WindDirection,WindDirectionDegrees,WindSpeedMPH,WindSpeedGustMPH,Humidity,HourlyPrecipIn,Conditions,Clouds,dailyrainin,SoftwareType,DateUTC
2013-03-12 00:01:00,30.6,28.0,29.85,West,261,9.0,10.0,90,0.00,,,0.00,Wunderground v.1.15,2013-03-12 05:01:00,
2013-03-12 00:07:00,30.5,27.9,29.85,NNW,338,9.0,15.0,90,0.00,,,0.00,Wunderground v.1.15,2013-03-12 05:07:00,
2013-03-12 00:13:00,30.3,27.7,29.85,WSW,241,8.0,15.0,90,0.00,,,0.00,Wunderground v.1.15,2013-03-12 05:13:00,
2013-03-12 00:20:00,30.3,27.7,29.85,NW,311,10.0,15.0,90,0.00,,,0.00,Wunderground v.1.15,2013-03-12 05:20:00,
2013-03-12 00:25:00,30.1,27.5,29.85,SW,227,10.0,15.0,90,0.00,,,0.00,Wunderground v.1.15,2013-03-12 05:25:00,
2013-03-12 00:31:00,29.9,27.1,29.85,NNW,330,10.0,14.0,89,0.00,,,0.00,Wunderground v.1.15,2013-03-12 05:31:00,
2013-03-12 00:37:00,29.7,26.9,29.85,West,272,10.0,17.0,89,0.00,,,0.00,Wunderground v.1.15,2013-03-12 05:37:00,
2013-03-12 00:43:00,29.7,26.9,29.86,WNW,292,9.0,16.0,89,0.00,,,0.00,Wunderground v.1.15,2013-03-12 05:43:00,
2013-03-12 00:48:00,29.6,26.8,29.86,West,271,10.0,16.0,89,0.00,,,0.00,Wunderground v.1.15,2013-03-12 05:48:00,
2013-03-12 00:53:00,29.6,26.8,29.86,SW,232,9.0,11.0,89,0.00,,,0.00,Wunderground v.1.15,2013-03-12 05:53:00,
2013-03-12 00:58:00,29.6,26.8,29.86,SW,230,8.0,11.0,89,0.00,,,0.00,Wunderground v.1.15,2013-03-12 05:58:00,
2013-03-12 01:03:00,29.5,26.4,29.86,WNW,302,9.0,13.0,88,0.00,,,0.00,Wunderground v.1.15,2013-03-12 06:03:00,
2013-03-12 01:09:00,29.4,26.3,29.86,SW,236,9.0,14.0,88,0.00,,,0.00,Wunderground v.1.15,2013-03-12 06:09:00,
2013-03-12 01:15:00,29.4,26.3,29.87,WNW,290,9.0,13.0,88,0.00,,,0.00,Wunderground v.1.15,2013-03-12 06:15:00,
2013-03-12 01:20:00,29.4,26.6,29.87,WNW,282,9.0,9.0,89,0.00,,,0.00,Wunderground v.1.15,2013-03-12 06:20:00,
2013-03-12 01:25:00,29.4,26.6,29.87,WSW,258,9.0,9.0,89,0.00,,,0.00,Wunderground v.1.15,2013-03-12 06:25:00,
2013-03-12 01:30:00,29.4,26.6,29.87,NW,318,8.0,8.0,89,0.00,,,0.00,Wunderground v.1.15,2013-03-12 06:30:00,
2013-03-12 01:36:00,29.3,26.5,29.87,WNW,288,8.0,15.0,89,0.00,,,0.00,Wunderground v.1.15,2013-03-12 06:36:00,
2013-03-12 01:41:00,29.3,26.5,29.87,WNW,300,8.0,13.0,89,0.00,,,0.00,Wunderground v.1.15,2013-03-12 06:41:00,
2013-03-12 01:46:00,29.3,26.2,29.87,NW,316,8.0,13.0,88,0.00,,,0.00,Wunderground v.1.15,2013-03-12 06:46:00,
2013-03-12 01:52:00,29.3,26.5,29.87,West,278,8.0,8.0,89,0.00,,,0.00,Wunderground v.1.15,2013-03-12 06:52:00,
2013-03-12 01:58:00,29.2,26.4,29.88,NW,323,7.0,8.0,89,0.00,,,0.00,Wunderground v.1.15,2013-03-12 06:58:00,
2013-03-12 02:03:00,29.2,26.4,29.88,West,263,7.0,11.0,89,0.00,,,0.00,Wunderground v.1.15,2013-03-12 07:03:00,
2013-03-12 02:10:00,29.2,26.4,29.88,West,265,8.0,8.0,89,0.00,,,0.00,Wunderground v.1.15,2013-03-12 07:10:00,
2013-03-12 02:15:00,29.2,26.4,29.88,NW,304,8.0,13.0,89,0.00,,,0.00,Wunderground v.1.15,2013-03-12 07:15:00,
2013-03-12 02:21:00,29.2,26.4,29.89,West,259,8.0,10.0,89,0.00,,,0.00,Wunderground v.1.15,2013-03-12 07:21:00,
2013-03-12 02:27:00,29.0,26.2,29.90,SW,231,7.0,11.0,89,0.00,,,0.00,Wunderground v.1.15,2013-03-12 07:27:00,
2013-03-12 02:33:00,28.8,26.2,29.90,WSW,258,8.0,11.0,90,0.00,,,0.00,Wunderground v.1.15,2013-03-12 07:33:00,
2013-03-12 02:39:00,28.7,26.1,29.90,NNW,343,8.0,11.0,90,0.00,,,0.00,Wunderground v.1.15,2013-03-12 07:39:00,
2013-03-12 02:45:00,28.6,26.3,29.90,North,355,9.0,12.0,91,0.00,,,0.00,Wunderground v.1.15,2013-03-12 07:45:00,
2013-03-12 02:50:00,28.4,26.4,29.90,WNW,284,8.0,9.0,92,0.00,,,0.00,Wunderground v.1.15,2013-03-12 07:50:00,
2013-03-12 02:56:00,28.2,26.4,29.90,West,263,9.0,15.0,93,0.00,,,0.00,Wunderground v.1.15,2013-03-12 07:56:00,
2013-03-12 03:02:00,28.1,26.3,29.90,West,263,8.0,9.0,93,0.00,,,0.00,Wunderground v.1.15,2013-03-12 08:02:00,
2013-03-12 03:07:00,27.9,26.4,29.90,WNW,284,9.0,15.0,94,0.00,,,0.00,Wunderground v.1.15,2013-03-12 08:07:00,
2013-03-12 03:12:00,27.8,26.3,29.90,NNE,27,9.0,13.0,94,0.00,,,0.00,Wunderground v.1.15,2013-03-12 08:12:00,
2013-03-12 03:18:00,27.6,26.4,29.90,West,267,8.0,13.0,95,0.00,,,0.00,Wunderground v.1.15,2013-03-12 08:18:00,
2013-03-12 03:23:00,27.6,26.4,29.90,SW,224,9.0,15.0,95,0.00,,,0.00,Wunderground v.1.15,2013-03-12 08:23:00,
2013-03-12 03:29:00,27.6,26.4,29.90,West,268,9.0,15.0,95,0.00,,,0.00,Wunderground v.1.15,2013-03-12 08:29:00,
2013-03-12 03:35:00,27.7,26.5,29.89,WSW,238,9.0,12.0,95,0.00,,,0.00,Wunderground v.1.15,2013-03-12 08:35:00,
2013-03-12 03:41:00,27.6,26.1,29.90,NW,317,9.0,11.0,94,0.00,,,0.00,Wunderground v.1.15,2013-03-12 08:41:00,
2013-03-12 03:47:00,27.7,26.2,29.89,WSW,242,8.0,14.0,94,0.00,,,0.00,Wunderground v.1.15,2013-03-12 08:47:00,
2013-03-12 03:52:00,27.8,26.3,29.90,WNW,299,8.0,15.0,94,0.00,,,0.00,Wunderground v.1.15,2013-03-12 08:52:00,
2013-03-12 03:58:00,27.9,26.4,29.90,NNE,16,8.0,15.0,94,0.00,,,0.00,Wunderground v.1.15,2013-03-12 08:58:00,
2013-03-12 04:03:00,27.9,26.1,29.90,WSW,244,8.0,14.0,93,0.00,,,0.00,Wunderground v.1.15,2013-03-12 09:03:00,
2013-03-12 04:10:00,27.9,25.9,29.90,NW,319,8.0,14.0,92,0.00,,,0.00,Wunderground v.1.15,2013-03-12 09:10:00,
2013-03-12 04:15:00,27.9,25.6,29.90,SSW,204,8.0,11.0,91,0.00,,,0.00,Wunderground v.1.15,2013-03-12 09:15:00,
2013-03-12 04:20:00,27.8,25.5,29.90,WNW,287,8.0,10.0,91,0.00,,,0.00,Wunderground v.1.15,2013-03-12 09:20:00,
2013-03-12 04:26:00,27.7,25.4,29.90,WSW,248,8.0,17.0,91,0.00,,,0.00,Wunderground v.1.15,2013-03-12 09:26:00,
2013-03-12 04:32:00,27.5,25.2,29.90,SSW,213,8.0,8.0,91,0.00,,,0.00,Wunderground v.1.15,2013-03-12 09:32:00,
2013-03-12 04:37:00,27.4,24.9,29.90,SW,219,7.0,9.0,90,0.00,,,0.00,Wunderground v.1.15,2013-03-12 09:37:00,
2013-03-12 04:43:00,27.4,24.9,29.90,WSW,254,7.0,9.0,90,0.00,,,0.00,Wunderground v.1.15,2013-03-12 09:43:00,
2013-03-12 04:49:00,27.4,24.9,29.90,WSW,242,7.0,12.0,90,0.00,,,0.00,Wunderground v.1.15,2013-03-12 09:49:00,
2013-03-12 04:54:00,27.3,25.0,29.90,West,263,7.0,8.0,91,0.00,,,0.00,Wunderground v.1.15,2013-03-12 09:54:00,
2013-03-12 05:01:00,27.2,24.9,29.91,SW,233,7.0,7.0,91,0.00,,,0.00,Wunderground v.1.15,2013-03-12 10:01:00,
2013-03-12 05:06:00,27.1,24.8,29.91,WNW,283,7.0,9.0,91,0.00,,,0.00,Wunderground v.1.15,2013-03-12 10:06:00,
2013-03-12 05:12:00,27.0,24.7,29.91,West,271,6.0,12.0,91,0.00,,,0.00,Wunderground v.1.15,2013-03-12 10:12:00,
2013-03-12 05:18:00,26.9,24.6,29.91,WNW,285,6.0,12.0,91,0.00,,,0.00,Wunderground v.1.15,2013-03-12 10:18:00,
2013-03-12 05:24:00,26.7,24.4,29.92,WSW,250,6.0,12.0,91,0.00,,,0.00,Wunderground v.1.15,2013-03-12 10:24:00,
2013-03-12 05:30:00,26.6,24.3,29.92,West,263,5.0,12.0,91,0.00,,,0.00,Wunderground v.1.15,2013-03-12 10:30:00,
2013-03-12 05:36:00,26.4,24.1,29.91,West,265,5.0,7.0,91,0.00,,,0.00,Wunderground v.1.15,2013-03-12 10:36:00,
2013-03-12 05:41:00,26.3,24.0,29.92,WSW,252,6.0,7.0,91,0.00,,,0.00,Wunderground v.1.15,2013-03-12 10:41:00,
2013-03-12 05:46:00,26.1,23.8,29.92,NNW,328,6.0,6.0,91,0.00,,,0.00,Wunderground v.1.15,2013-03-12 10:46:00,
2013-03-12 05:51:00,26.1,23.6,29.92,West,263,6.0,6.0,90,0.00,,,0.00,Wunderground v.1.15,2013-03-12 10:51:00,
2013-03-12 05:57:00,26.0,23.5,29.92,West,267,5.0,6.0,90,0.00,,,0.00,Wunderground v.1.15,2013-03-12 10:57:00,
2013-03-12 06:03:00,26.0,23.2,29.92,West,269,6.0,10.0,89,0.00,,,0.00,Wunderground v.1.15,2013-03-12 11:03:00,
2013-03-12 06:08:00,26.0,23.2,29.92,West,269,6.0,10.0,89,0.00,,,0.00,Wunderground v.1.15,2013-03-12 11:08:00,
2013-03-12 06:13:00,25.9,22.8,29.92,WNW,301,6.0,10.0,88,0.00,,,0.00,Wunderground v.1.15,2013-03-12 11:13:00,
2013-03-12 06:20:00,25.8,22.7,29.92,West,265,6.0,10.0,88,0.00,,,0.00,Wunderground v.1.15,2013-03-12 11:20:00,
2013-03-12 06:25:00,25.8,22.5,29.92,SW,229,7.0,10.0,87,0.00,,,0.00,Wunderground v.1.15,2013-03-12 11:25:00,
2013-03-12 06:31:00,25.8,22.2,29.93,West,273,6.0,7.0,86,0.00,,,0.00,Wunderground v.1.15,2013-03-12 11:31:00,
2013-03-12 06:36:00,25.7,21.8,29.93,West,277,6.0,8.0,85,0.00,,,0.00,Wunderground v.1.15,2013-03-12 11:36:00,
2013-03-12 06:41:00,25.6,21.7,29.93,WSW,241,6.0,7.0,85,0.00,,,0.00,Wunderground v.1.15,2013-03-12 11:41:00,
2013-03-12 06:46:00,25.5,21.6,29.93,WNW,300,5.0,8.0,85,0.00,,,0.00,Wunderground v.1.15,2013-03-12 11:46:00,
2013-03-12 06:52:00,25.4,21.5,29.93,NW,304,5.0,9.0,85,0.00,,,0.00,Wunderground v.1.15,2013-03-12 11:52:00,
2013-03-12 06:58:00,25.2,21.3,29.93,WNW,289,6.0,9.0,85,0.00,,,0.00,Wunderground v.1.15,2013-03-12 11:58:00,
2013-03-12 07:03:00,25.2,21.0,29.93,West,273,6.0,11.0,84,0.00,,,0.00,Wunderground v.1.15,2013-03-12 12:03:00,
2013-03-12 07:10:00,25.1,20.9,29.93,NW,311,6.0,11.0,84,0.00,,,0.00,Wunderground v.1.15,2013-03-12 12:10:00,
2013-03-12 07:15:00,25.0,20.8,29.94,WNW,288,5.0,7.0,84,0.00,,,0.00,Wunderground v.1.15,2013-03-12 12:15:00,
2013-03-12 07:21:00,24.9,20.8,29.94,NW,304,4.0,7.0,84,0.00,,,0.00,Wunderground v.1.15,2013-03-12 12:21:00,
2013-03-12 07:26:00,24.8,20.7,29.94,West,259,5.0,7.0,84,0.00,,,0.00,Wunderground v.1.15,2013-03-12 12:26:00,
2013-03-12 07:31:00,24.9,20.8,29.94,WSW,242,6.0,6.0,84,0.00,,,0.00,Wunderground v.1.15,2013-03-12 12:31:00,
2013-03-12 07:36:00,25.0,20.8,29.94,West,278,6.0,9.0,84,0.00,,,0.00,Wunderground v.1.15,2013-03-12 12:36:00,
2013-03-12 07:42:00,24.9,20.8,29.94,WSW,252,6.0,7.0,84,0.00,,,0.00,Wunderground v.1.15,2013-03-12 12:42:00,
2013-03-12 07:48:00,24.9,21.0,29.94,WSW,257,6.0,7.0,85,0.00,,,0.00,Wunderground v.1.15,2013-03-12 12:48:00,
2013-03-12 07:54:00,25.1,21.2,29.94,WNW,291,5.0,9.0,85,0.00,,,0.00,Wunderground v.1.15,2013-03-12 12:54:00,
2013-03-12 08:00:00,25.2,21.3,29.94,West,261,5.0,9.0,85,0.00,,,0.00,Wunderground v.1.15,2013-03-12 13:00:00,
2013-03-12 08:05:00,25.4,21.5,29.94,WNW,296,4.0,7.0,85,0.00,,,0.00,Wunderground v.1.15,2013-03-12 13:05:00,
2013-03-12 08:10:00,25.6,21.7,29.94,WSW,238,5.0,5.0,85,0.00,,,0.00,Wunderground v.1.15,2013-03-12 13:10:00,
2013-03-12 08:16:00,25.7,21.8,29.94,WSW,251,6.0,8.0,85,0.00,,,0.00,Wunderground v.1.15,2013-03-12 13:16:00,
2013-03-12 08:22:00,26.0,22.1,29.94,WNW,284,6.0,11.0,85,0.00,,,0.00,Wunderground v.1.15,2013-03-12 13:22:00,
2013-03-12 08:27:00,26.2,22.3,29.94,NNW,338,6.0,11.0,85,0.00,,,0.00,Wunderground v.1.15,2013-03-12 13:27:00,
2013-03-12 08:33:00,26.3,22.4,29.94,West,273,6.0,7.0,85,0.00,,,0.00,Wunderground v.1.15,2013-03-12 13:33:00,
2013-03-12 08:40:00,26.4,22.5,29.95,West,280,6.0,7.0,85,0.00,,,0.00,Wunderground v.1.15,2013-03-12 13:40:00,
2013-03-12 08:45:00,26.6,22.7,29.95,West,271,6.0,10.0,85,0.00,,,0.00,Wunderground v.1.15,2013-03-12 13:45:00,
2013-03-12 08:50:00,26.8,22.9,29.95,West,267,6.0,6.0,85,0.00,,,0.00,Wunderground v.1.15,2013-03-12 13:50:00,
2013-03-12 08:56:00,27.1,23.2,29.95,West,271,6.0,8.0,85,0.00,,,0.00,Wunderground v.1.15,2013-03-12 13:56:00,
2013-03-12 09:02:00,27.1,23.2,29.95,SW,231,7.0,14.0,85,0.00,,,0.00,Wunderground v.1.15,2013-03-12 14:02:00,
2013-03-12 09:07:00,27.3,23.4,29.95,West,269,8.0,14.0,85,0.00,,,0.00,Wunderground v.1.15,2013-03-12 14:07:00,
2013-03-12 09:13:00,27.6,24.0,29.96,SW,236,7.0,14.0,86,0.00,,,0.00,Wunderground v.1.15,2013-03-12 14:13:00,
2013-03-12 09:20:00,27.6,23.7,29.96,West,260,7.0,14.0,85,0.00,,,0.00,Wunderground v.1.15,2013-03-12 14:20:00,
2013-03-12 09:25:00,27.8,24.2,29.96,WNW,282,8.0,13.0,86,0.00,,,0.00,Wunderground v.1.15,2013-03-12 14:25:00,
2013-03-12 09:30:00,27.8,24.2,29.96,NW,308,8.0,13.0,86,0.00,,,0.00,Wunderground v.1.15,2013-03-12 14:30:00,
2013-03-12 09:36:00,27.7,24.1,29.96,WSW,250,10.0,15.0,86,0.00,,,0.00,Wunderground v.1.15,2013-03-12 14:36:00,
2013-03-12 09:42:00,27.8,24.2,29.96,SW,214,10.0,12.0,86,0.00,,,0.00,Wunderground v.1.15,2013-03-12 14:42:00,
2013-03-12 09:47:00,27.9,24.5,29.96,West,272,9.0,12.0,87,0.00,,,0.00,Wunderground v.1.15,2013-03-12 14:47:00,
2013-03-12 09:53:00,28.0,24.6,29.96,WSW,254,9.0,10.0,87,0.00,,,0.00,Wunderground v.1.15,2013-03-12 14:53:00,
2013-03-12 10:00:00,28.2,25.1,29.97,West,259,8.0,10.0,88,0.00,,,0.00,Wunderground v.1.15,2013-03-12 15:00:00,
2013-03-12 10:05:00,28.6,25.5,29.96,WSW,242,7.0,12.0,88,0.00,,,0.00,Wunderground v.1.15,2013-03-12 15:05:00,
2013-03-12 10:10:00,29.2,25.8,29.96,WSW,243,7.0,12.0,87,0.00,,,0.00,Wunderground v.1.15,2013-03-12 15:10:00,
2013-03-12 10:16:00,29.8,26.1,29.96,WSW,250,7.0,12.0,86,0.00,,,0.00,Wunderground v.1.15,2013-03-12 15:16:00,
2013-03-12 10:22:00,30.3,26.6,29.97,WSW,243,8.0,8.0,86,0.00,,,0.00,Wunderground v.1.15,2013-03-12 15:22:00,
2013-03-12 10:28:00,30.4,26.4,29.97,SW,236,9.0,13.0,85,0.00,,,0.00,Wunderground v.1.15,2013-03-12 15:28:00,
2013-03-12 10:35:00,30.5,26.5,29.97,West,262,10.0,11.0,85,0.00,,,0.00,Wunderground v.1.15,2013-03-12 15:35:00,
2013-03-12 10:40:00,30.6,26.3,29.97,SW,216,8.0,13.0,84,0.00,,,0.00,Wunderground v.1.15,2013-03-12 15:40:00,
2013-03-12 10:45:00,30.6,26.3,29.97,SW,224,8.0,14.0,84,0.00,,,0.00,Wunderground v.1.15,2013-03-12 15:45:00,
2013-03-12 10:51:00,30.5,26.5,29.97,SW,220,9.0,9.0,85,0.00,,,0.00,Wunderground v.1.15,2013-03-12 15:51:00,
2013-03-12 10:57:00,30.5,26.2,29.97,SW,217,10.0,15.0,84,0.00,,,0.00,Wunderground v.1.15,2013-03-12 15:57:00,
2013-03-12 11:02:00,30.8,26.8,29.97,West,266,9.0,11.0,85,0.00,,,0.00,Wunderground v.1.15,2013-03-12 16:02:00,
2013-03-12 11:07:00,31.1,26.8,29.97,West,269,8.0,11.0,84,0.00,,,0.00,Wunderground v.1.15,2013-03-12 16:07:00,
2013-03-12 11:13:00,31.3,26.7,29.98,WSW,238,9.0,14.0,83,0.00,,,0.00,Wunderground v.1.15,2013-03-12 16:13:00,
2013-03-12 11:18:00,31.4,26.8,29.98,West,275,11.0,14.0,83,0.00,,,0.00,Wunderground v.1.15,2013-03-12 16:18:00,
2013-03-12 11:25:00,31.7,27.1,29.98,WNW,288,12.0,18.0,83,0.00,,,0.00,Wunderground v.1.15,2013-03-12 16:25:00,
2013-03-12 11:30:00,31.7,27.4,29.98,WSW,248,10.0,10.0,84,0.00,,,0.00,Wunderground v.1.15,2013-03-12 16:30:00,
2013-03-12 11:36:00,32.0,27.4,29.97,West,271,10.0,18.0,83,0.00,,,0.00,Wunderground v.1.15,2013-03-12 16:36:00,
2013-03-12 11:41:00,32.4,27.8,29.98,SW,234,10.0,13.0,83,0.00,,,0.00,Wunderground v.1.15,2013-03-12 16:41:00,
2013-03-12 11:47:00,32.4,27.2,29.97,West,277,11.0,14.0,81,0.00,,,0.00,Wunderground v.1.15,2013-03-12 16:47:00,
2013-03-12 11:52:00,32.5,27.3,29.97,WNW,292,11.0,17.0,81,0.00,,,0.00,Wunderground v.1.15,2013-03-12 16:52:00,
2013-03-12 11:58:00,32.8,27.3,29.97,WSW,247,9.0,17.0,80,0.00,,,0.00,Wunderground v.1.15,2013-03-12 16:58:00,
2013-03-12 12:05:00,33.4,27.9,29.97,West,259,9.0,12.0,80,0.00,,,0.00,Wunderground v.1.15,2013-03-12 17:05:00,
2013-03-12 12:11:00,33.6,27.8,29.97,WNW,282,10.0,10.0,79,0.00,,,0.00,Wunderground v.1.15,2013-03-12 17:11:00,
2013-03-12 12:16:00,33.5,27.7,29.97,West,271,11.0,20.0,79,0.00,,,0.00,Wunderground v.1.15,2013-03-12 17:16:00,
2013-03-12 12:23:00,33.5,27.7,29.96,WSW,254,11.0,12.0,79,0.00,,,0.00,Wunderground v.1.15,2013-03-12 17:23:00,
2013-03-12 12:28:00,34.1,28.0,29.96,SSW,213,10.0,12.0,78,0.00,,,0.00,Wunderground v.1.15,2013-03-12 17:28:00,
2013-03-12 12:33:00,34.4,28.2,29.96,WNW,294,10.0,10.0,78,0.00,,,0.00,Wunderground v.1.15,2013-03-12 17:33:00,
2013-03-12 12:40:00,34.6,28.4,29.96,WSW,240,10.0,12.0,78,0.00,,,0.00,Wunderground v.1.15,2013-03-12 17:40:00,
2013-03-12 12:45:00,34.7,28.2,29.96,WSW,242,11.0,18.0,77,0.00,,,0.00,Wunderground v.1.15,2013-03-12 17:45:00,
2013-03-12 12:53:00,34.8,28.6,29.96,WSW,244,11.0,11.0,78,0.00,,,0.00,Wunderground v.1.15,2013-03-12 17:53:00,
2013-03-12 12:58:00,34.7,28.5,29.96,SW,223,10.0,11.0,78,0.00,,,0.00,Wunderground v.1.15,2013-03-12 17:58:00,
2013-03-12 13:05:00,35.2,29.0,29.96,West,266,10.0,19.0,78,0.00,,,0.00,Wunderground v.1.15,2013-03-12 18:05:00,
2013-03-12 13:10:00,35.0,28.8,29.96,WNW,284,11.0,11.0,78,0.00,,,0.00,Wunderground v.1.15,2013-03-12 18:10:00,
2013-03-12 13:16:00,34.7,28.9,29.96,West,278,11.0,15.0,79,0.00,,,0.00,Wunderground v.1.15,2013-03-12 18:16:00,
2013-03-12 13:22:00,34.4,28.6,29.96,WSW,238,10.0,18.0,79,0.00,,,0.00,Wunderground v.1.15,2013-03-12 18:22:00,
2013-03-12 13:28:00,34.1,29.5,29.96,WSW,254,12.0,18.0,83,0.00,,,0.00,Wunderground v.1.15,2013-03-12 18:28:00,
2013-03-12 13:35:00,33.5,29.5,29.96,West,265,12.0,13.0,85,0.00,,,0.00,Wunderground v.1.15,2013-03-12 18:35:00,
2013-03-12 13:40:00,33.3,29.3,29.96,SSE,167,14.0,14.0,85,0.00,,,0.00,Wunderground v.1.15,2013-03-12 18:40:00,
2013-03-12 13:45:00,33.0,29.3,29.96,WSW,244,14.0,15.0,86,0.00,,,0.00,Wunderground v.1.15,2013-03-12 18:45:00,
2013-03-12 13:51:00,32.7,29.5,29.96,West,270,12.0,15.0,88,0.00,,,0.00,Wunderground v.1.15,2013-03-12 18:51:00,
2013-03-12 13:56:00,32.4,29.5,29.96,West,264,12.0,21.0,89,0.00,,,0.00,Wunderground v.1.15,2013-03-12 18:56:00,
2013-03-12 14:01:00,32.3,29.7,29.96,WSW,249,12.0,12.0,90,0.00,,,0.00,Wunderground v.1.15,2013-03-12 19:01:00,
2013-03-12 14:07:00,32.1,29.5,29.96,WSW,249,11.0,17.0,90,0.00,,,0.00,Wunderground v.1.15,2013-03-12 19:07:00,
2013-03-12 14:13:00,32.0,29.4,29.96,West,271,14.0,15.0,90,0.00,,,0.00,Wunderground v.1.15,2013-03-12 19:13:00,
2013-03-12 14:19:00,32.1,29.5,29.96,West,273,14.0,15.0,90,0.00,,,0.00,Wunderground v.1.15,2013-03-12 19:19:00,
2013-03-12 14:25:00,31.9,29.3,29.96,West,262,13.0,26.0,90,0.00,,,0.00,Wunderground v.1.15,2013-03-12 19:25:00,
2013-03-12 14:30:00,32.0,29.7,29.96,WSW,239,13.0,26.0,91,0.00,,,0.00,Wunderground v.1.15,2013-03-12 19:30:00,
2013-03-12 14:36:00,31.9,29.3,29.96,WSW,244,13.0,21.0,90,0.00,,,0.00,Wunderground v.1.15,2013-03-12 19:36:00,
2013-03-12 14:41:00,31.9,29.0,29.96,WNW,285,14.0,14.0,89,0.00,,,0.00,Wunderground v.1.15,2013-03-12 19:41:00,
2013-03-12 14:47:00,32.0,29.1,29.96,WSW,255,13.0,17.0,89,0.00,,,0.00,Wunderground v.1.15,2013-03-12 19:47:00,
2013-03-12 14:53:00,32.0,28.8,29.96,SW,223,13.0,13.0,88,0.00,,,0.00,Wunderground v.1.15,2013-03-12 19:53:00,
2013-03-12 14:58:00,32.0,29.1,29.96,WSW,258,13.0,14.0,89,0.00,,,0.00,Wunderground v.1.15,2013-03-12 19:58:00,
2013-03-12 15:03:00,32.0,29.1,29.96,WSW,248,10.0,12.0,89,0.00,,,0.00,Wunderground v.1.15,2013-03-12 20:03:00,
2013-03-12 15:10:00,32.4,29.5,29.96,West,273,11.0,12.0,89,0.00,,,0.00,Wunderground v.1.15,2013-03-12 20:10:00,
2013-03-12 15:16:00,32.6,29.7,29.96,West,269,12.0,17.0,89,0.00,,,0.00,Wunderground v.1.15,2013-03-12 20:16:00,
2013-03-12 15:21:00,32.6,29.4,29.96,WSW,246,12.0,12.0,88,0.00,,,0.00,Wunderground v.1.15,2013-03-12 20:21:00,
2013-03-12 15:27:00,33.1,29.9,29.96,West,259,10.0,16.0,88,0.00,,,0.00,Wunderground v.1.15,2013-03-12 20:27:00,
2013-03-12 15:33:00,33.6,29.9,29.95,SW,235,10.0,16.0,86,0.00,,,0.00,Wunderground v.1.15,2013-03-12 20:33:00,
2013-03-12 15:38:00,33.7,30.0,29.95,West,272,10.0,16.0,86,0.00,,,0.00,Wunderground v.1.15,2013-03-12 20:38:00,
2013-03-12 15:43:00,33.4,29.7,29.95,WSW,252,9.0,12.0,86,0.00,,,0.00,Wunderground v.1.15,2013-03-12 20:43:00,
2013-03-12 15:50:00,32.5,29.3,29.96,WSW,243,13.0,16.0,88,0.00,,,0.00,Wunderground v.1.15,2013-03-12 20:50:00,
2013-03-12 15:55:00,32.3,29.4,29.96,WSW,243,13.0,15.0,89,0.00,,,0.00,Wunderground v.1.15,2013-03-12 20:55:00,
2013-03-12 16:00:00,32.3,29.7,29.96,West,281,10.0,10.0,90,0.00,,,0.00,Wunderground v.1.15,2013-03-12 21:00:00,
2013-03-12 16:06:00,32.8,30.2,29.95,WNW,283,9.0,19.0,90,0.00,,,0.00,Wunderground v.1.15,2013-03-12 21:06:00,
2013-03-12 16:11:00,32.8,29.9,29.95,West,277,11.0,14.0,89,0.00,,,0.00,Wunderground v.1.15,2013-03-12 21:11:00,
2013-03-12 16:17:00,32.6,29.7,29.95,WNW,296,11.0,14.0,89,0.00,,,0.00,Wunderground v.1.15,2013-03-12 21:17:00,
2013-03-12 16:22:00,32.4,29.5,29.95,WSW,242,10.0,11.0,89,0.00,,,0.00,Wunderground v.1.15,2013-03-12 21:22:00,
2013-03-12 16:27:00,32.4,29.8,29.95,SW,228,10.0,11.0,90,0.00,,,0.00,Wunderground v.1.15,2013-03-12 21:27:00,
2013-03-12 16:32:00,32.4,29.8,29.95,West,274,10.0,13.0,90,0.00,,,0.00,Wunderground v.1.15,2013-03-12 21:32:00,
2013-03-12 16:37:00,33.0,30.1,29.95,WSW,250,11.0,25.0,89,0.00,,,0.00,Wunderground v.1.15,2013-03-12 21:37:00,
2013-03-12 16:43:00,33.2,29.8,29.95,SSW,212,16.0,20.0,87,0.00,,,0.00,Wunderground v.1.15,2013-03-12 21:43:00,
2013-03-12 16:50:00,32.6,30.0,29.95,West,271,15.0,20.0,90,0.00,,,0.00,Wunderground v.1.15,2013-03-12 21:50:00,
2013-03-12 16:55:00,32.1,30.3,29.95,NNW,333,12.0,15.0,93,0.00,,,0.00,Wunderground v.1.15,2013-03-12 21:55:00,
2013-03-12 17:01:00,32.2,29.6,29.96,WNW,284,13.0,17.0,90,0.00,,,0.00,Wunderground v.1.15,2013-03-12 22:01:00,
2013-03-12 17:06:00,31.9,29.3,29.96,West,279,14.0,18.0,90,0.00,,,0.00,Wunderground v.1.15,2013-03-12 22:06:00,
2013-03-12 17:11:00,31.7,28.8,29.96,WNW,299,15.0,15.0,89,0.00,,,0.00,Wunderground v.1.15,2013-03-12 22:11:00,
2013-03-12 17:16:00,31.9,28.8,29.96,West,271,14.0,17.0,88,0.00,,,0.00,Wunderground v.1.15,2013-03-12 22:16:00,
2013-03-12 17:22:00,32.1,28.4,29.96,WSW,241,13.0,22.0,86,0.00,,,0.00,Wunderground v.1.15,2013-03-12 22:22:00,
2013-03-12 17:27:00,32.2,28.5,29.96,WSW,240,13.0,22.0,86,0.00,,,0.00,Wunderground v.1.15,2013-03-12 22:27:00,
2013-03-12 17:33:00,32.3,28.3,29.96,WNW,298,12.0,14.0,85,0.00,,,0.00,Wunderground v.1.15,2013-03-12 22:33:00,
2013-03-12 17:38:00,32.0,26.5,29.96,West,268,14.0,21.0,80,0.00,,,0.00,Wunderground v.1.15,2013-03-12 22:38:00,
2013-03-12 17:43:00,31.7,25.0,29.96,West,270,15.0,19.0,76,0.00,,,0.00,Wunderground v.1.15,2013-03-12 22:43:00,
2013-03-12 17:50:00,31.6,25.5,29.97,West,271,15.0,23.0,78,0.00,,,0.00,Wunderground v.1.15,2013-03-12 22:50:00,
2013-03-12 17:56:00,31.5,25.7,29.98,WNW,284,15.0,24.0,79,0.00,,,0.00,Wunderground v.1.15,2013-03-12 22:56:00,
2013-03-12 18:01:00,30.6,24.6,29.98,West,277,16.0,16.0,78,0.00,,,0.00,Wunderground v.1.15,2013-03-12 23:01:00,
2013-03-12 18:07:00,30.3,23.6,29.98,West,278,19.0,29.0,76,0.00,,,0.00,Wunderground v.1.15,2013-03-12 23:07:00,
2013-03-12 18:12:00,30.1,23.4,29.98,West,277,20.0,24.0,76,0.00,,,0.00,Wunderground v.1.15,2013-03-12 23:12:00,
2013-03-12 18:19:00,30.2,23.9,29.98,West,281,20.0,25.0,77,0.00,,,0.00,Wunderground v.1.15,2013-03-12 23:19:00,
2013-03-12 18:24:00,30.0,24.0,29.99,WSW,254,16.0,22.0,78,0.00,,,0.00,Wunderground v.1.15,2013-03-12 23:24:00,
2013-03-12 18:30:00,29.8,23.5,29.99,West,281,15.0,24.0,77,0.00,,,0.00,Wunderground v.1.15,2013-03-12 23:30:00,
2013-03-12 18:36:00,29.6,23.3,30.00,WNW,292,16.0,23.0,77,0.00,,,0.00,Wunderground v.1.15,2013-03-12 23:36:00,
2013-03-12 18:41:00,29.4,22.8,29.99,West,264,14.0,18.0,76,0.00,,,0.00,Wunderground v.1.15,2013-03-12 23:41:00,
2013-03-12 18:47:00,29.3,22.4,30.00,NW,304,14.0,18.0,75,0.00,,,0.00,Wunderground v.1.15,2013-03-12 23:47:00,
2013-03-12 18:53:00,29.2,21.9,30.00,South,190,15.0,20.0,74,0.00,,,0.00,Wunderground v.1.15,2013-03-12 23:53:00,
2013-03-12 19:00:00,29.1,21.8,30.00,West,269,18.0,19.0,74,0.00,,,0.00,Wunderground v.1.15,2013-03-13 00:00:00,
2013-03-12 19:07:00,29.0,22.7,30.01,West,277,15.0,22.0,77,0.00,,,0.00,Wunderground v.1.15,2013-03-13 00:07:00,
2013-03-12 19:12:00,28.8,22.2,30.01,WSW,241,13.0,16.0,76,0.00,,,0.00,Wunderground v.1.15,2013-03-13 00:12:00,
2013-03-12 19:17:00,28.5,20.9,30.01,West,275,15.0,27.0,73,0.00,,,0.00,Wunderground v.1.15,2013-03-13 00:17:00,
2013-03-12 19:22:00,28.3,21.4,30.01,WNW,301,17.0,21.0,75,0.00,,,0.00,Wunderground v.1.15,2013-03-13 00:22:00,
2013-03-12 19:27:00,28.2,21.9,30.01,North,350,15.0,21.0,77,0.00,,,0.00,Wunderground v.1.15,2013-03-13 00:27:00,
2013-03-12 19:35:00,28.1,21.5,30.02,West,272,14.0,25.0,76,0.00,,,0.00,Wunderground v.1.15,2013-03-13 00:35:00,
2013-03-12 19:41:00,28.0,21.4,30.02,West,279,14.0,14.0,76,0.00,,,0.00,Wunderground v.1.15,2013-03-13 00:41:00,
2013-03-12 19:46:00,27.9,21.0,30.03,West,263,15.0,22.0,75,0.00,,,0.00,Wunderground v.1.15,2013-03-13 00:46:00,
2013-03-12 19:51:00,27.9,21.6,30.03,West,265,16.0,19.0,77,0.00,,,0.00,Wunderground v.1.15,2013-03-13 00:51:00,
2013-03-12 19:57:00,27.5,21.8,30.03,WNW,298,14.0,21.0,79,0.00,,,0.00,Wunderground v.1.15,2013-03-13 00:57:00,
2013-03-12 20:03:00,27.2,21.2,30.03,West,271,14.0,20.0,78,0.00,,,0.00,Wunderground v.1.15,2013-03-13 01:03:00,
2013-03-12 20:10:00,27.1,21.5,30.03,WSW,246,13.0,20.0,79,0.00,,,0.00,Wunderground v.1.15,2013-03-13 01:10:00,
2013-03-12 20:17:00,26.9,21.8,30.04,SW,228,14.0,19.0,81,0.00,,,0.00,Wunderground v.1.15,2013-03-13 01:17:00,
2013-03-12 20:22:00,26.8,22.0,30.04,WSW,246,11.0,16.0,82,0.00,,,0.00,Wunderground v.1.15,2013-03-13 01:22:00,
2013-03-12 20:28:00,26.7,21.9,30.04,SSW,213,11.0,18.0,82,0.00,,,0.00,Wunderground v.1.15,2013-03-13 01:28:00,
2013-03-12 20:33:00,26.5,21.5,30.04,South,185,11.0,16.0,81,0.00,,,0.00,Wunderground v.1.15,2013-03-13 01:33:00,
2013-03-12 20:38:00,26.5,21.5,30.04,West,269,13.0,21.0,81,0.00,,,0.00,Wunderground v.1.15,2013-03-13 01:38:00,
2013-03-12 20:43:00,26.3,21.6,30.04,WNW,294,13.0,14.0,82,0.00,,,0.00,Wunderground v.1.15,2013-03-13 01:43:00,
2013-03-12 20:50:00,26.2,21.7,30.05,WNW,285,11.0,19.0,83,0.00,,,0.00,Wunderground v.1.15,2013-03-13 01:50:00,
2013-03-12 20:56:00,26.1,21.9,30.05,West,263,11.0,17.0,84,0.00,,,0.00,Wunderground v.1.15,2013-03-13 01:56:00,
2013-03-12 21:01:00,26.3,21.8,30.05,West,268,13.0,16.0,83,0.00,,,0.00,Wunderground v.1.15,2013-03-13 02:01:00,
2013-03-12 21:07:00,26.5,21.7,30.05,West,280,13.0,21.0,82,0.00,,,0.00,Wunderground v.1.15,2013-03-13 02:07:00,
2013-03-12 21:12:00,26.6,21.6,30.06,SW,217,15.0,20.0,81,0.00,,,0.00,Wunderground v.1.15,2013-03-13 02:12:00,
2013-03-12 21:18:00,26.6,21.3,30.06,WNW,287,16.0,20.0,80,0.00,,,0.00,Wunderground v.1.15,2013-03-13 02:18:00,
2013-03-12 21:23:00,26.4,21.1,30.06,West,279,15.0,18.0,80,0.00,,,0.00,Wunderground v.1.15,2013-03-13 02:23:00,
2013-03-12 21:30:00,26.2,20.9,30.06,West,271,15.0,19.0,80,0.00,,,0.00,Wunderground v.1.15,2013-03-13 02:30:00,
2013-03-12 21:36:00,26.1,20.8,30.06,WNW,285,15.0,19.0,80,0.00,,,0.00,Wunderground v.1.15,2013-03-13 02:36:00,
2013-03-12 21:42:00,26.0,20.7,30.07,West,261,14.0,15.0,80,0.00,,,0.00,Wunderground v.1.15,2013-03-13 02:42:00,
2013-03-12 21:48:00,25.8,20.8,30.07,WSW,245,12.0,15.0,81,0.00,,,0.00,Wunderground v.1.15,2013-03-13 02:48:00,
2013-03-12 21:55:00,25.7,20.7,30.07,SW,228,11.0,13.0,81,0.00,,,0.00,Wunderground v.1.15,2013-03-13 02:55:00,
2013-03-12 22:00:00,25.8,20.8,30.07,WNW,284,12.0,20.0,81,0.00,,,0.00,Wunderground v.1.15,2013-03-13 03:00:00,
2013-03-12 22:05:00,25.8,20.8,30.07,West,269,14.0,18.0,81,0.00,,,0.00,Wunderground v.1.15,2013-03-13 03:05:00,
2013-03-12 22:12:00,25.6,20.6,30.07,West,266,12.0,12.0,81,0.00,,,0.00,Wunderground v.1.15,2013-03-13 03:12:00,
2013-03-12 22:17:00,25.6,20.6,30.07,SW,231,11.0,18.0,81,0.00,,,0.00,Wunderground v.1.15,2013-03-13 03:17:00,
2013-03-12 22:23:00,25.5,20.5,30.08,SSE,165,12.0,20.0,81,0.00,,,0.00,Wunderground v.1.15,2013-03-13 03:23:00,
2013-03-12 22:30:00,25.4,20.4,30.08,West,265,13.0,13.0,81,0.00,,,0.00,Wunderground v.1.15,2013-03-13 03:30:00,
2013-03-12 22:35:00,25.4,20.4,30.08,West,271,12.0,14.0,81,0.00,,,0.00,Wunderground v.1.15,2013-03-13 03:35:00,
2013-03-12 22:41:00,25.2,20.5,30.08,West,272,11.0,16.0,82,0.00,,,0.00,Wunderground v.1.15,2013-03-13 03:41:00,
2013-03-12 22:46:00,25.3,20.3,30.08,WNW,284,11.0,17.0,81,0.00,,,0.00,Wunderground v.1.15,2013-03-13 03:46:00,
2013-03-12 22:51:00,25.3,20.6,30.08,West,272,11.0,11.0,82,0.00,,,0.00,Wunderground v.1.15,2013-03-13 03:51:00,
2013-03-12 22:57:00,25.2,20.5,30.08,SW,229,10.0,16.0,82,0.00,,,0.00,Wunderground v.1.15,2013-03-13 03:57:00,
2013-03-12 23:00:00,25.1,20.4,30.08,West,260,9.0,16.0,82,0.00,,,0.00,Wunderground v.1.15,2013-03-13 04:00:00,
2013-03-12 23:01:00,25.1,20.4,30.08,West,263,10.0,15.0,82,0.00,,,0.00,Wunderground v.1.15,2013-03-13 04:01:00,
2013-03-12 23:07:00,25.0,20.3,30.08,West,278,11.0,15.0,82,0.00,,,0.00,Wunderground v.1.15,2013-03-13 04:07:00,
2013-03-12 23:11:00,25.0,20.3,30.08,SW,236,11.0,14.0,82,0.00,,,0.00,Wunderground v.1.15,2013-03-13 04:11:00,
2013-03-12 23:17:00,24.8,20.4,30.08,West,272,12.0,16.0,83,0.00,,,0.00,Wunderground v.1.15,2013-03-13 04:17:00,
2013-03-12 23:23:00,24.8,20.4,30.08,WNW,288,12.0,14.0,83,0.00,,,0.00,Wunderground v.1.15,2013-03-13 04:23:00,
2013-03-12 23:28:00,24.7,20.3,30.09,West,279,11.0,15.0,83,0.00,,,0.00,Wunderground v.1.15,2013-03-13 04:28:00,
2013-03-12 23:35:00,24.7,20.3,30.09,WNW,290,12.0,16.0,83,0.00,,,0.00,Wunderground v.1.15,2013-03-13 04:35:00,
2013-03-12 23:40:00,24.6,20.5,30.09,WNW,300,11.0,16.0,84,0.00,,,0.00,Wunderground v.1.15,2013-03-13 04:40:00,
2013-03-12 23:45:00,24.6,20.5,30.09,West,266,11.0,17.0,84,0.00,,,0.00,Wunderground v.1.15,2013-03-13 04:45:00,
2013-03-12 23:51:00,24.6,20.5,30.09,SW,234,11.0,11.0,84,0.00,,,0.00,Wunderground v.1.15,2013-03-13 04:51:00,
2013-03-12 23:56:00,24.6,20.5,30.09,SSW,198,9.0,13.0,84,0.00,,,0.00,Wunderground v.1.15,2013-03-13 04:56:00,